{"data":{"norad_id":40081,"intl_designator":"2014-038C","name":"O3B FM6","alt_names":[],"object_type":"PAYLOAD","status":"ACTIVE","operator":null,"country":"O3B","launch_date":"2014-07-10","launch_site_code":"FRGUI","launch_vehicle":null,"mission":null,"orbit_class":"UNKNOWN","rcs_meters":12.5893,"size_class":null,"mass_kg":null,"dimensions":null,"purposes":["comms"],"wikipedia_slug":null,"has_3d_model":false,"image_url":null,"decayed_at":null,"tle_current":{"epoch":"2026-05-24T21:23:56.056128Z","epoch_age_seconds":84185,"freshness":"FRESH","line1":"1 40081U 14038C   26144.89162102 -.00000024  00000+0  00000+0 0  9990","line2":"2 40081   0.0492 351.3421 0002632  70.0819 298.6019  5.00115716216669","mean_motion":5.00115716,"eccentricity":0.0002632,"inclination_deg":0.0492,"raan_deg":351.3421,"arg_perigee_deg":70.0819,"mean_anomaly_deg":298.6019,"bstar":0,"rev_number":21666,"period_min":287.93336300593,"perigee_km":8062.0843925011995,"apogee_km":8069.6877262397,"semimajor_km":14444.02305937,"source":"CELESTRAK","updated_at":"2026-05-25T13:38:14.509787Z"}}}